Year,Month,Day,Hour,Minute,Value (Times are PST for temperature in C)
2015,06,29,00,00,24.50
2015,06,29,00,01,24.50
2015,06,29,00,02,24.50
2015,06,29,00,03,24.40
2015,06,29,00,04,24.40
2015,06,29,00,05,24.40
2015,06,29,00,06,24.30
2015,06,29,00,07,24.20
2015,06,29,00,08,24.20
2015,06,29,00,09,24.30
2015,06,29,00,10,24.30
2015,06,29,00,11,24.20
2015,06,29,00,12,24.20
2015,06,29,00,13,24.10
2015,06,29,00,14,24.00
2015,06,29,00,15,23.90
2015,06,29,00,16,23.80
2015,06,29,00,17,23.70
2015,06,29,00,18,23.60
2015,06,29,00,19,23.50
2015,06,29,00,20,23.50
2015,06,29,00,21,23.40
2015,06,29,00,22,23.40
2015,06,29,00,23,23.40
2015,06,29,00,24,23.50
2015,06,29,00,25,23.50
2015,06,29,00,26,23.60
2015,06,29,00,27,23.60
2015,06,29,00,28,23.60
2015,06,29,00,29,23.70
2015,06,29,00,30,23.70
2015,06,29,00,31,23.80
2015,06,29,00,32,23.90
2015,06,29,00,33,24.00
2015,06,29,00,34,24.10
2015,06,29,00,35,24.10
2015,06,29,00,36,24.10
2015,06,29,00,37,24.10
2015,06,29,00,38,24.20
2015,06,29,00,39,24.20
2015,06,29,00,40,24.20
2015,06,29,00,41,24.30
2015,06,29,00,42,24.30
2015,06,29,00,43,24.20
2015,06,29,00,44,24.20
2015,06,29,00,45,24.20
2015,06,29,00,46,24.20
2015,06,29,00,47,24.20
2015,06,29,00,48,24.20
2015,06,29,00,49,24.20
2015,06,29,00,50,24.20
2015,06,29,00,51,24.20
2015,06,29,00,52,24.20
2015,06,29,00,53,24.10
2015,06,29,00,54,24.10
2015,06,29,00,55,24.10
2015,06,29,00,56,24.00
2015,06,29,00,57,24.00
2015,06,29,00,58,24.00
2015,06,29,00,59,24.00
2015,06,29,01,00,24.00
2015,06,29,01,01,23.90
2015,06,29,01,02,23.90
2015,06,29,01,03,23.80
2015,06,29,01,04,23.70
2015,06,29,01,05,23.60
2015,06,29,01,06,23.60
2015,06,29,01,07,23.50
2015,06,29,01,08,23.40
2015,06,29,01,09,23.40
2015,06,29,01,10,23.30
2015,06,29,01,11,23.30
2015,06,29,01,12,23.20
2015,06,29,01,13,23.10
2015,06,29,01,14,23.00
2015,06,29,01,15,22.90
2015,06,29,01,16,22.70
2015,06,29,01,17,22.70
2015,06,29,01,18,22.60
2015,06,29,01,19,22.60
2015,06,29,01,20,22.50
2015,06,29,01,21,22.50
2015,06,29,01,22,22.50
2015,06,29,01,23,22.50
2015,06,29,01,24,22.40
2015,06,29,01,25,22.30
2015,06,29,01,26,22.20
2015,06,29,01,27,22.10
2015,06,29,01,28,22.00
2015,06,29,01,29,22.00
2015,06,29,01,30,21.90
2015,06,29,01,31,21.90
2015,06,29,01,32,21.80
2015,06,29,01,33,21.70
2015,06,29,01,34,21.70
2015,06,29,01,35,21.60
2015,06,29,01,36,21.50
2015,06,29,01,37,21.50
2015,06,29,01,38,21.40
2015,06,29,01,39,21.30
2015,06,29,01,40,21.20
2015,06,29,01,41,21.10
2015,06,29,01,42,21.00
2015,06,29,01,43,20.90
2015,06,29,01,44,20.80
2015,06,29,01,45,20.80
2015,06,29,01,46,20.70
2015,06,29,01,47,20.70
2015,06,29,01,48,20.80
2015,06,29,01,49,20.90
2015,06,29,01,50,21.00
2015,06,29,01,51,21.10
2015,06,29,01,52,21.20
2015,06,29,01,53,21.30
2015,06,29,01,54,21.30
2015,06,29,01,55,21.30
2015,06,29,01,56,21.30
2015,06,29,01,57,21.20
2015,06,29,01,58,21.20
2015,06,29,01,59,21.10
2015,06,29,02,00,21.00
2015,06,29,02,01,20.90
2015,06,29,02,02,20.80
2015,06,29,02,03,20.80
2015,06,29,02,04,20.70
2015,06,29,02,05,20.60
2015,06,29,02,06,20.60
2015,06,29,02,07,20.50
2015,06,29,02,08,20.40
2015,06,29,02,09,20.30
2015,06,29,02,10,20.30
2015,06,29,02,11,20.20
2015,06,29,02,12,20.20
2015,06,29,02,13,20.20
2015,06,29,02,14,20.10
2015,06,29,02,15,20.10
2015,06,29,02,16,20.00
2015,06,29,02,17,20.00
2015,06,29,02,18,19.90
2015,06,29,02,19,19.90
2015,06,29,02,20,19.90
2015,06,29,02,21,19.90
2015,06,29,02,22,19.80
2015,06,29,02,23,19.90
2015,06,29,02,24,19.90
2015,06,29,02,25,20.00
2015,06,29,02,26,20.10
2015,06,29,02,27,20.10
2015,06,29,02,28,20.20
2015,06,29,02,29,20.20
2015,06,29,02,30,20.20
2015,06,29,02,31,20.10
2015,06,29,02,32,20.10
2015,06,29,02,33,20.10
2015,06,29,02,34,20.10
2015,06,29,02,35,20.00
2015,06,29,02,36,20.00
2015,06,29,02,37,19.90
2015,06,29,02,38,19.90
2015,06,29,02,39,19.80
2015,06,29,02,40,19.80
2015,06,29,02,41,19.80
2015,06,29,02,42,19.70
2015,06,29,02,43,19.70
2015,06,29,02,44,19.60
2015,06,29,02,45,19.60
2015,06,29,02,46,19.60
2015,06,29,02,47,19.60
2015,06,29,02,48,19.60
2015,06,29,02,49,19.50
2015,06,29,02,50,19.50
2015,06,29,02,51,19.50
2015,06,29,02,52,19.50
2015,06,29,02,53,19.40
2015,06,29,02,54,19.40
2015,06,29,02,55,19.40
2015,06,29,02,56,19.30
2015,06,29,02,57,19.30
2015,06,29,02,58,19.30
2015,06,29,02,59,19.20
2015,06,29,03,00,19.20
2015,06,29,03,01,19.20
2015,06,29,03,02,19.20
2015,06,29,03,03,19.10
2015,06,29,03,04,19.10
2015,06,29,03,05,19.10
2015,06,29,03,06,19.00
2015,06,29,03,07,18.90
2015,06,29,03,08,18.90
2015,06,29,03,09,18.80
2015,06,29,03,10,18.80
2015,06,29,03,11,18.80
2015,06,29,03,12,18.80
2015,06,29,03,13,18.70
2015,06,29,03,14,18.70
2015,06,29,03,15,18.70
2015,06,29,03,16,18.70
2015,06,29,03,17,18.70
2015,06,29,03,18,18.70
2015,06,29,03,19,18.70
2015,06,29,03,20,18.70
2015,06,29,03,21,18.70
2015,06,29,03,22,18.70
2015,06,29,03,23,18.70
2015,06,29,03,24,18.70
2015,06,29,03,25,18.70
2015,06,29,03,26,18.70
2015,06,29,03,27,18.70
2015,06,29,03,28,18.60
2015,06,29,03,29,18.60
2015,06,29,03,30,18.60
2015,06,29,03,31,18.70
2015,06,29,03,32,18.70
2015,06,29,03,33,18.70
2015,06,29,03,34,18.70
2015,06,29,03,35,18.80
2015,06,29,03,36,18.80
2015,06,29,03,37,18.80
2015,06,29,03,38,18.70
2015,06,29,03,39,18.70
2015,06,29,03,40,18.70
2015,06,29,03,41,18.60
2015,06,29,03,42,18.60
2015,06,29,03,43,18.60
2015,06,29,03,44,18.50
2015,06,29,03,45,18.50
2015,06,29,03,46,18.50
2015,06,29,03,47,18.50
2015,06,29,03,48,18.50
2015,06,29,03,49,18.40
2015,06,29,03,50,18.40
2015,06,29,03,51,18.40
2015,06,29,03,52,18.30
2015,06,29,03,53,18.30
2015,06,29,03,54,18.30
2015,06,29,03,55,18.30
2015,06,29,03,56,18.40
2015,06,29,03,57,18.40
2015,06,29,03,58,18.50
2015,06,29,03,59,18.50
2015,06,29,04,00,18.50
2015,06,29,04,01,18.50
2015,06,29,04,02,18.50
2015,06,29,04,03,18.40
2015,06,29,04,04,18.40
2015,06,29,04,05,18.40
2015,06,29,04,06,18.40
2015,06,29,04,07,18.40
2015,06,29,04,08,18.40
2015,06,29,04,09,18.40
2015,06,29,04,10,18.40
2015,06,29,04,11,18.40
2015,06,29,04,12,18.40
2015,06,29,04,13,18.50
2015,06,29,04,14,18.50
2015,06,29,04,15,18.50
2015,06,29,04,16,18.60
2015,06,29,04,17,18.60
2015,06,29,04,18,18.60
2015,06,29,04,19,18.70
2015,06,29,04,20,18.80
2015,06,29,04,21,18.90
2015,06,29,04,22,19.00
2015,06,29,04,23,19.00
2015,06,29,04,24,19.00
2015,06,29,04,25,19.00
2015,06,29,04,26,19.00
2015,06,29,04,27,18.90
2015,06,29,04,28,18.90
2015,06,29,04,29,18.80
2015,06,29,04,30,18.80
2015,06,29,04,31,18.80
2015,06,29,04,32,18.70
2015,06,29,04,33,18.70
2015,06,29,04,34,18.60
2015,06,29,04,35,18.60
2015,06,29,04,36,18.50
2015,06,29,04,37,18.50
2015,06,29,04,38,18.50
2015,06,29,04,39,18.50
2015,06,29,04,40,18.50
2015,06,29,04,41,18.60
2015,06,29,04,42,18.60
2015,06,29,04,43,18.70
2015,06,29,04,44,18.70
2015,06,29,04,45,18.80
2015,06,29,04,46,18.80
2015,06,29,04,47,18.80
2015,06,29,04,48,18.90
2015,06,29,04,49,18.90
2015,06,29,04,50,19.00
2015,06,29,04,51,19.00
2015,06,29,04,52,19.10
2015,06,29,04,53,19.20
2015,06,29,04,54,19.20
2015,06,29,04,55,19.30
2015,06,29,04,56,19.40
2015,06,29,04,57,19.40
2015,06,29,04,58,19.40
2015,06,29,04,59,19.40
2015,06,29,05,00,19.40
2015,06,29,05,01,19.40
2015,06,29,05,02,19.40
2015,06,29,05,03,19.40
2015,06,29,05,04,19.40
2015,06,29,05,05,19.40
2015,06,29,05,06,19.40
2015,06,29,05,07,19.40
2015,06,29,05,08,19.40
2015,06,29,05,09,19.40
2015,06,29,05,10,19.40
2015,06,29,05,11,19.40
2015,06,29,05,12,19.30
2015,06,29,05,13,19.40
2015,06,29,05,14,19.40
2015,06,29,05,15,19.40
2015,06,29,05,16,19.40
2015,06,29,05,17,19.30
2015,06,29,05,18,19.30
2015,06,29,05,19,19.30
2015,06,29,05,20,19.30
2015,06,29,05,21,19.20
2015,06,29,05,22,19.20
2015,06,29,05,23,19.20
2015,06,29,05,24,19.20
2015,06,29,05,25,19.20
2015,06,29,05,26,19.20
2015,06,29,05,27,19.20
2015,06,29,05,28,19.20
2015,06,29,05,29,19.20
2015,06,29,05,30,19.20
2015,06,29,05,31,19.10
2015,06,29,05,32,19.00
2015,06,29,05,33,19.00
2015,06,29,05,34,18.90
2015,06,29,05,35,18.80
2015,06,29,05,36,18.80
2015,06,29,05,37,18.80
2015,06,29,05,38,18.70
2015,06,29,05,39,18.70
2015,06,29,05,40,18.70
2015,06,29,05,41,18.60
2015,06,29,05,42,18.60
2015,06,29,05,43,18.60
2015,06,29,05,44,18.50
2015,06,29,05,45,18.50
2015,06,29,05,46,18.50
2015,06,29,05,47,18.50
2015,06,29,05,48,18.50
2015,06,29,05,49,18.50
2015,06,29,05,50,18.50
2015,06,29,05,51,18.50
2015,06,29,05,52,18.60
2015,06,29,05,53,18.60
2015,06,29,05,54,18.60
2015,06,29,05,55,18.60
2015,06,29,05,56,18.60
2015,06,29,05,57,18.60
2015,06,29,05,58,18.60
2015,06,29,05,59,18.60
2015,06,29,06,00,18.60
2015,06,29,06,01,18.60
2015,06,29,06,02,18.60
2015,06,29,06,03,18.70
2015,06,29,06,04,18.70
2015,06,29,06,05,18.70
2015,06,29,06,06,18.70
2015,06,29,06,07,18.70
2015,06,29,06,08,18.70
2015,06,29,06,09,18.70
2015,06,29,06,10,18.70
2015,06,29,06,11,18.70
2015,06,29,06,12,18.70
2015,06,29,06,13,18.70
2015,06,29,06,14,18.70
2015,06,29,06,15,18.70
2015,06,29,06,16,18.70
2015,06,29,06,17,18.70
2015,06,29,06,18,18.70
2015,06,29,06,19,18.70
2015,06,29,06,20,18.70
2015,06,29,06,21,18.60
2015,06,29,06,22,18.60
2015,06,29,06,23,18.60
2015,06,29,06,24,18.60
2015,06,29,06,25,18.60
2015,06,29,06,26,18.50
2015,06,29,06,27,18.50
2015,06,29,06,28,18.40
2015,06,29,06,29,18.40
2015,06,29,06,30,18.40
2015,06,29,06,31,18.30
2015,06,29,06,32,18.30
2015,06,29,06,33,18.20
2015,06,29,06,34,18.10
2015,06,29,06,35,18.10
2015,06,29,06,36,18.00
2015,06,29,06,37,18.00
2015,06,29,06,38,18.00
2015,06,29,06,39,17.90
2015,06,29,06,40,17.90
2015,06,29,06,41,17.90
2015,06,29,06,42,17.90
2015,06,29,06,43,17.90
2015,06,29,06,44,17.90
2015,06,29,06,45,17.90
2015,06,29,06,46,17.90
2015,06,29,06,47,17.80
2015,06,29,06,48,17.80
2015,06,29,06,49,17.80
2015,06,29,06,50,17.80
2015,06,29,06,51,17.80
2015,06,29,06,52,17.80
2015,06,29,06,53,17.90
2015,06,29,06,54,17.90
2015,06,29,06,55,17.90
2015,06,29,06,56,18.00
2015,06,29,06,57,18.00
2015,06,29,06,58,18.10
2015,06,29,06,59,18.20
2015,06,29,07,00,18.20
2015,06,29,07,01,18.30
2015,06,29,07,02,18.40
2015,06,29,07,03,18.50
2015,06,29,07,04,18.50
2015,06,29,07,05,18.60
2015,06,29,07,06,18.70
2015,06,29,07,07,18.80
2015,06,29,07,08,18.90
2015,06,29,07,09,19.10
2015,06,29,07,10,19.20
2015,06,29,07,11,19.30
2015,06,29,07,12,19.50
2015,06,29,07,13,19.60
2015,06,29,07,14,19.70
2015,06,29,07,15,19.80
2015,06,29,07,16,19.90
2015,06,29,07,17,20.00
2015,06,29,07,18,20.10
2015,06,29,07,19,20.20
2015,06,29,07,20,20.30
2015,06,29,07,21,20.40
2015,06,29,07,22,20.50
2015,06,29,07,23,20.60
2015,06,29,07,24,20.70
2015,06,29,07,25,20.80
2015,06,29,07,26,20.90
2015,06,29,07,27,21.00
2015,06,29,07,28,21.10
2015,06,29,07,29,21.20
2015,06,29,07,30,21.30
2015,06,29,07,31,21.40
2015,06,29,07,32,21.60
2015,06,29,07,33,21.70
2015,06,29,07,34,21.80
2015,06,29,07,35,21.90
2015,06,29,07,36,22.00
2015,06,29,07,37,22.10
2015,06,29,07,38,22.30
2015,06,29,07,39,22.40
2015,06,29,07,40,22.50
2015,06,29,07,41,22.60
2015,06,29,07,42,22.60
2015,06,29,07,43,22.70
2015,06,29,07,44,22.80
2015,06,29,07,45,22.90
2015,06,29,07,46,23.00
2015,06,29,07,47,23.00
2015,06,29,07,48,23.10
2015,06,29,07,49,23.20
2015,06,29,07,50,23.30
2015,06,29,07,51,23.30
2015,06,29,07,52,23.40
2015,06,29,07,53,23.40
2015,06,29,07,54,23.50
2015,06,29,07,55,23.50
2015,06,29,07,56,23.60
2015,06,29,07,57,23.70
2015,06,29,07,58,23.70
2015,06,29,07,59,23.70
2015,06,29,08,00,23.70
2015,06,29,08,01,23.80
2015,06,29,08,02,23.80
2015,06,29,08,03,23.80
2015,06,29,08,04,23.80
2015,06,29,08,05,23.80
2015,06,29,08,06,23.90
2015,06,29,08,07,23.90
2015,06,29,08,08,23.90
2015,06,29,08,09,24.00
2015,06,29,08,10,24.00
2015,06,29,08,11,24.10
2015,06,29,08,12,24.00
2015,06,29,08,13,24.00
2015,06,29,08,14,24.00
2015,06,29,08,15,24.00
2015,06,29,08,16,24.00
2015,06,29,08,17,23.90
2015,06,29,08,18,23.90
2015,06,29,08,19,23.90
2015,06,29,08,20,23.90
2015,06,29,08,21,23.80
2015,06,29,08,22,23.80
2015,06,29,08,23,23.80
2015,06,29,08,24,23.80
2015,06,29,08,25,23.80
2015,06,29,08,26,23.80
2015,06,29,08,27,23.80
2015,06,29,08,28,23.80
2015,06,29,08,29,23.80
2015,06,29,08,30,23.80
2015,06,29,08,31,23.80
2015,06,29,08,32,23.80
2015,06,29,08,33,23.80
2015,06,29,08,34,23.70
2015,06,29,08,35,23.70
2015,06,29,08,36,23.70
2015,06,29,08,37,23.70
2015,06,29,08,38,23.70
2015,06,29,08,39,23.70
2015,06,29,08,40,23.70
2015,06,29,08,41,23.70
2015,06,29,08,42,23.60
2015,06,29,08,43,23.60
2015,06,29,08,44,23.60
2015,06,29,08,45,23.60
2015,06,29,08,46,23.60
2015,06,29,08,47,23.60
2015,06,29,08,48,23.70
2015,06,29,08,49,23.70
2015,06,29,08,50,23.80
2015,06,29,08,51,23.80
2015,06,29,08,52,23.90
2015,06,29,08,53,23.90
2015,06,29,08,54,24.00
2015,06,29,08,55,24.10
2015,06,29,08,56,24.10
2015,06,29,08,57,24.10
2015,06,29,08,58,24.20
2015,06,29,08,59,24.20
2015,06,29,09,00,24.20
2015,06,29,09,01,24.20
2015,06,29,09,02,24.30
2015,06,29,09,03,24.30
2015,06,29,09,04,24.30
2015,06,29,09,05,24.30
2015,06,29,09,06,24.30
2015,06,29,09,07,24.30
2015,06,29,09,08,24.30
2015,06,29,09,09,24.30
2015,06,29,09,10,24.40
2015,06,29,09,11,24.40
2015,06,29,09,12,24.40
2015,06,29,09,13,24.40
2015,06,29,09,14,24.40
2015,06,29,09,15,24.40
2015,06,29,09,16,24.30
2015,06,29,09,17,24.30
2015,06,29,09,18,24.30
2015,06,29,09,19,24.30
2015,06,29,09,20,24.30
2015,06,29,09,21,24.40
2015,06,29,09,22,24.40
2015,06,29,09,23,24.50
2015,06,29,09,24,24.50
2015,06,29,09,25,24.50
2015,06,29,09,26,24.50
2015,06,29,09,27,24.40
2015,06,29,09,28,24.40
2015,06,29,09,29,24.30
2015,06,29,09,30,24.30
2015,06,29,09,31,24.20
2015,06,29,09,32,24.20
2015,06,29,09,33,24.10
2015,06,29,09,34,24.00
2015,06,29,09,35,24.00
2015,06,29,09,36,23.90
2015,06,29,09,37,23.90
2015,06,29,09,38,23.90
2015,06,29,09,39,23.90
2015,06,29,09,40,23.80
2015,06,29,09,41,23.80
2015,06,29,09,42,23.70
2015,06,29,09,43,23.70
2015,06,29,09,44,23.70
2015,06,29,09,45,23.80
2015,06,29,09,46,23.80
2015,06,29,09,47,23.80
2015,06,29,09,48,23.90
2015,06,29,09,49,23.90
2015,06,29,09,50,24.00
2015,06,29,09,51,24.10
2015,06,29,09,52,24.10
2015,06,29,09,53,24.20
2015,06,29,09,54,24.20
2015,06,29,09,55,24.30
2015,06,29,09,56,24.30
2015,06,29,09,57,24.30
2015,06,29,09,58,24.30
2015,06,29,09,59,24.40
2015,06,29,10,00,24.40
2015,06,29,10,01,24.30
2015,06,29,10,02,24.30
2015,06,29,10,03,24.20
2015,06,29,10,04,24.10
2015,06,29,10,05,24.10
2015,06,29,10,06,24.10
2015,06,29,10,07,24.00
2015,06,29,10,08,24.00
2015,06,29,10,09,24.00
2015,06,29,10,10,24.00
2015,06,29,10,11,24.00
2015,06,29,10,12,24.10
2015,06,29,10,13,24.10
2015,06,29,10,14,24.00
2015,06,29,10,15,23.90
2015,06,29,10,16,23.80
2015,06,29,10,17,23.70
2015,06,29,10,18,23.70
2015,06,29,10,19,23.70
2015,06,29,10,20,23.70
2015,06,29,10,21,23.80
2015,06,29,10,22,23.80
2015,06,29,10,23,23.90
2015,06,29,10,24,24.00
2015,06,29,10,25,24.10
2015,06,29,10,26,24.20
2015,06,29,10,27,24.30
2015,06,29,10,28,24.40
2015,06,29,10,29,24.50
2015,06,29,10,30,24.60
2015,06,29,10,31,24.70
2015,06,29,10,32,24.70
2015,06,29,10,33,24.80
2015,06,29,10,34,24.80
2015,06,29,10,35,24.80
2015,06,29,10,36,24.90
2015,06,29,10,37,24.90
2015,06,29,10,38,24.90
2015,06,29,10,39,24.90
2015,06,29,10,40,25.00
2015,06,29,10,41,25.20
2015,06,29,10,42,25.20
2015,06,29,10,43,25.30
2015,06,29,10,44,25.30
2015,06,29,10,45,25.30
2015,06,29,10,46,25.20
2015,06,29,10,47,25.00
2015,06,29,10,48,24.90
2015,06,29,10,49,24.80
2015,06,29,10,50,24.80
2015,06,29,10,51,24.80
2015,06,29,10,52,24.90
2015,06,29,10,53,24.90
2015,06,29,10,54,25.00
2015,06,29,10,55,25.10
2015,06,29,10,56,25.20
2015,06,29,10,57,25.20
2015,06,29,10,58,25.30
2015,06,29,10,59,25.20
2015,06,29,11,00,25.20
2015,06,29,11,01,25.10
2015,06,29,11,02,25.00
2015,06,29,11,03,25.00
2015,06,29,11,04,25.00
2015,06,29,11,05,25.10
2015,06,29,11,06,25.10
2015,06,29,11,07,25.20
2015,06,29,11,08,25.30
2015,06,29,11,09,25.20
2015,06,29,11,10,25.20
2015,06,29,11,11,25.20
2015,06,29,11,12,25.20
2015,06,29,11,13,25.20
2015,06,29,11,14,25.20
2015,06,29,11,15,25.20
2015,06,29,11,16,25.20
2015,06,29,11,17,25.30
2015,06,29,11,18,25.40
2015,06,29,11,19,25.50
2015,06,29,11,20,25.60
2015,06,29,11,21,25.60
2015,06,29,11,22,25.70
2015,06,29,11,23,25.70
2015,06,29,11,24,25.80
2015,06,29,11,25,25.80
2015,06,29,11,26,25.90
2015,06,29,11,27,25.90
2015,06,29,11,28,25.90
2015,06,29,11,29,25.90
2015,06,29,11,30,25.90
2015,06,29,11,31,25.90
2015,06,29,11,32,25.80
2015,06,29,11,33,25.70
2015,06,29,11,34,25.60
2015,06,29,11,35,25.60
2015,06,29,11,36,25.60
2015,06,29,11,37,25.60
2015,06,29,11,38,25.60
2015,06,29,11,39,25.60
2015,06,29,11,40,25.60
2015,06,29,11,41,25.60
2015,06,29,11,42,25.60
2015,06,29,11,43,25.50
2015,06,29,11,44,25.40
2015,06,29,11,45,25.40
2015,06,29,11,46,25.40
2015,06,29,11,47,25.30
2015,06,29,11,48,25.20
2015,06,29,11,49,25.20
2015,06,29,11,50,25.20
2015,06,29,11,51,25.10
2015,06,29,11,52,25.10
2015,06,29,11,53,25.10
2015,06,29,11,54,25.10
2015,06,29,11,55,25.00
2015,06,29,11,56,25.00
2015,06,29,11,57,25.00
2015,06,29,11,58,25.10
2015,06,29,11,59,25.10
2015,06,29,12,00,25.20
2015,06,29,12,01,25.20
2015,06,29,12,02,25.30
2015,06,29,12,03,25.30
2015,06,29,12,04,25.40
2015,06,29,12,05,25.50
2015,06,29,12,06,25.50
2015,06,29,12,07,25.50
2015,06,29,12,08,25.40
2015,06,29,12,09,25.30
2015,06,29,12,10,25.30
2015,06,29,12,11,25.30
2015,06,29,12,12,25.30
2015,06,29,12,13,25.30
2015,06,29,12,14,25.20
2015,06,29,12,15,25.20
2015,06,29,12,16,25.30
2015,06,29,12,17,25.30
2015,06,29,12,18,25.30
2015,06,29,12,19,25.40
2015,06,29,12,20,25.40
2015,06,29,12,21,25.50
2015,06,29,12,22,25.50
2015,06,29,12,23,25.50
2015,06,29,12,24,25.50
2015,06,29,12,25,25.40
2015,06,29,12,26,25.50
2015,06,29,12,27,25.50
2015,06,29,12,28,25.60
2015,06,29,12,29,25.70
2015,06,29,12,30,25.70
2015,06,29,12,31,25.70
2015,06,29,12,32,25.60
2015,06,29,12,33,25.50
2015,06,29,12,34,25.50
2015,06,29,12,35,25.40
2015,06,29,12,36,25.40
2015,06,29,12,37,25.40
2015,06,29,12,38,25.40
2015,06,29,12,39,25.40
2015,06,29,12,40,25.50
2015,06,29,12,41,25.60
2015,06,29,12,42,25.60
2015,06,29,12,43,25.60
2015,06,29,12,44,25.60
2015,06,29,12,45,25.70
2015,06,29,12,46,25.70
2015,06,29,12,47,25.80
2015,06,29,12,48,25.80
2015,06,29,12,49,25.90
2015,06,29,12,50,25.90
2015,06,29,12,51,25.90
2015,06,29,12,52,25.80
2015,06,29,12,53,25.70
2015,06,29,12,54,25.50
2015,06,29,12,55,25.40
2015,06,29,12,56,25.30
2015,06,29,12,57,25.30
2015,06,29,12,58,25.20
2015,06,29,12,59,25.20
2015,06,29,13,00,25.20
2015,06,29,13,01,25.20
2015,06,29,13,02,25.10
2015,06,29,13,03,25.10
2015,06,29,13,04,25.10
2015,06,29,13,05,25.20
2015,06,29,13,06,25.20
2015,06,29,13,07,25.20
2015,06,29,13,08,25.20
2015,06,29,13,09,25.20
2015,06,29,13,10,25.20
2015,06,29,13,11,25.20
2015,06,29,13,12,25.20
2015,06,29,13,13,25.20
2015,06,29,13,14,25.20
2015,06,29,13,15,25.20
2015,06,29,13,16,25.20
2015,06,29,13,17,25.20
2015,06,29,13,18,25.20
2015,06,29,13,19,25.20
2015,06,29,13,20,25.20
2015,06,29,13,21,25.20
2015,06,29,13,22,25.30
2015,06,29,13,23,25.40
2015,06,29,13,24,25.50
2015,06,29,13,25,25.60
2015,06,29,13,26,25.70
2015,06,29,13,27,25.80
2015,06,29,13,28,25.90
2015,06,29,13,29,26.00
2015,06,29,13,30,26.00
2015,06,29,13,31,26.10
2015,06,29,13,32,26.10
2015,06,29,13,33,26.20
2015,06,29,13,34,26.20
2015,06,29,13,35,26.20
2015,06,29,13,36,26.20
2015,06,29,13,37,26.10
2015,06,29,13,38,26.10
2015,06,29,13,39,26.20
2015,06,29,13,40,26.20
2015,06,29,13,41,26.20
2015,06,29,13,42,26.20
2015,06,29,13,43,26.10
2015,06,29,13,44,26.00
2015,06,29,13,45,26.00
2015,06,29,13,46,26.00
2015,06,29,13,47,25.90
2015,06,29,13,48,25.80
2015,06,29,13,49,25.80
2015,06,29,13,50,25.70
2015,06,29,13,51,25.70
2015,06,29,13,52,25.80
2015,06,29,13,53,25.90
2015,06,29,13,54,25.90
2015,06,29,13,55,26.00
2015,06,29,13,56,26.10
2015,06,29,13,57,26.20
2015,06,29,13,58,26.30
2015,06,29,13,59,26.30
2015,06,29,14,00,26.20
2015,06,29,14,01,26.10
2015,06,29,14,02,26.10
2015,06,29,14,03,26.10
2015,06,29,14,04,26.00
2015,06,29,14,05,26.00
2015,06,29,14,06,25.90
2015,06,29,14,07,25.80
2015,06,29,14,08,25.70
2015,06,29,14,09,25.70
2015,06,29,14,10,25.70
2015,06,29,14,11,25.70
2015,06,29,14,12,25.60
2015,06,29,14,13,25.60
2015,06,29,14,14,25.60
2015,06,29,14,15,25.60
2015,06,29,14,16,25.70
2015,06,29,14,17,25.70
2015,06,29,14,18,25.80
2015,06,29,14,19,26.00
2015,06,29,14,20,26.10
2015,06,29,14,21,26.20
2015,06,29,14,22,26.30
2015,06,29,14,23,26.40
2015,06,29,14,24,26.50
2015,06,29,14,25,26.60
2015,06,29,14,26,26.60
2015,06,29,14,27,26.60
2015,06,29,14,28,26.60
2015,06,29,14,29,26.60
2015,06,29,14,30,26.50
2015,06,29,14,31,26.40
2015,06,29,14,32,26.40
2015,06,29,14,33,26.40
2015,06,29,14,34,26.40
2015,06,29,14,35,26.40
2015,06,29,14,36,26.40
2015,06,29,14,37,26.50
2015,06,29,14,38,26.60
2015,06,29,14,39,26.60
2015,06,29,14,40,26.60
2015,06,29,14,41,26.60
2015,06,29,14,42,26.50
2015,06,29,14,43,26.60
2015,06,29,14,44,26.60
2015,06,29,14,45,26.60
2015,06,29,14,46,26.70
2015,06,29,14,47,26.70
2015,06,29,14,48,26.80
2015,06,29,14,49,26.80
2015,06,29,14,50,26.70
2015,06,29,14,51,26.60
2015,06,29,14,52,26.50
2015,06,29,14,53,26.40
2015,06,29,14,54,26.40
2015,06,29,14,55,26.30
2015,06,29,14,56,26.30
2015,06,29,14,57,26.20
2015,06,29,14,58,26.20
2015,06,29,14,59,26.10
2015,06,29,15,00,26.10
2015,06,29,15,01,26.10
2015,06,29,15,02,26.10
2015,06,29,15,03,26.10
2015,06,29,15,04,26.10
2015,06,29,15,05,26.10
2015,06,29,15,06,26.00
2015,06,29,15,07,26.10
2015,06,29,15,08,26.10
2015,06,29,15,09,26.00
2015,06,29,15,10,26.00
2015,06,29,15,11,25.80
2015,06,29,15,12,25.80
2015,06,29,15,13,25.80
2015,06,29,15,14,25.90
2015,06,29,15,15,25.90
2015,06,29,15,16,26.00
2015,06,29,15,17,26.10
2015,06,29,15,18,26.10
2015,06,29,15,19,26.10
2015,06,29,15,20,26.00
2015,06,29,15,21,26.00
2015,06,29,15,22,25.90
2015,06,29,15,23,25.90
2015,06,29,15,24,25.90
2015,06,29,15,25,26.00
2015,06,29,15,26,26.00
2015,06,29,15,27,26.10
2015,06,29,15,28,26.10
2015,06,29,15,29,26.20
2015,06,29,15,30,26.30
2015,06,29,15,31,26.30
2015,06,29,15,32,26.40
2015,06,29,15,33,26.40
2015,06,29,15,34,26.40
2015,06,29,15,35,26.50
2015,06,29,15,36,26.60
2015,06,29,15,37,26.60
2015,06,29,15,38,26.70
2015,06,29,15,39,26.80
2015,06,29,15,40,26.90
2015,06,29,15,41,27.00
2015,06,29,15,42,27.00
2015,06,29,15,43,27.00
2015,06,29,15,44,26.90
2015,06,29,15,45,26.70
2015,06,29,15,46,26.60
2015,06,29,15,47,26.50
2015,06,29,15,48,26.40
2015,06,29,15,49,26.40
2015,06,29,15,50,26.40
2015,06,29,15,51,26.40
2015,06,29,15,52,26.40
2015,06,29,15,53,26.30
2015,06,29,15,54,26.30
2015,06,29,15,55,26.20
2015,06,29,15,56,26.20
2015,06,29,15,57,26.20
2015,06,29,15,58,26.20
2015,06,29,15,59,26.20
2015,06,29,16,00,26.20
2015,06,29,16,01,26.20
2015,06,29,16,02,26.20
2015,06,29,16,03,26.20
2015,06,29,16,04,26.10
2015,06,29,16,05,26.00
2015,06,29,16,06,26.00
2015,06,29,16,07,26.00
2015,06,29,16,08,26.10
2015,06,29,16,09,26.20
2015,06,29,16,10,26.20
2015,06,29,16,11,26.30
2015,06,29,16,12,26.30
2015,06,29,16,13,26.30
2015,06,29,16,14,26.30
2015,06,29,16,15,26.40
2015,06,29,16,16,26.40
2015,06,29,16,17,26.40
2015,06,29,16,18,26.30
2015,06,29,16,19,26.40
2015,06,29,16,20,26.40
2015,06,29,16,21,26.50
2015,06,29,16,22,26.50
2015,06,29,16,23,26.40
2015,06,29,16,24,26.40
2015,06,29,16,25,26.50
2015,06,29,16,26,26.50
2015,06,29,16,27,26.60
2015,06,29,16,28,26.60
2015,06,29,16,29,26.70
2015,06,29,16,30,26.70
2015,06,29,16,31,26.70
2015,06,29,16,32,26.80
2015,06,29,16,33,26.70
2015,06,29,16,34,26.70
2015,06,29,16,35,26.70
2015,06,29,16,36,26.70
2015,06,29,16,37,26.80
2015,06,29,16,38,26.80
2015,06,29,16,39,26.80
2015,06,29,16,40,26.90
2015,06,29,16,41,26.90
2015,06,29,16,42,26.90
2015,06,29,16,43,26.90
2015,06,29,16,44,27.00
2015,06,29,16,45,27.00
2015,06,29,16,46,27.00
2015,06,29,16,47,27.00
2015,06,29,16,48,26.90
2015,06,29,16,49,26.90
2015,06,29,16,50,26.90
2015,06,29,16,51,26.90
2015,06,29,16,52,26.90
2015,06,29,16,53,26.90
2015,06,29,16,54,26.80
2015,06,29,16,55,26.70
2015,06,29,16,56,26.60
2015,06,29,16,57,26.50
2015,06,29,16,58,26.50
2015,06,29,16,59,26.40
2015,06,29,17,00,26.50
2015,06,29,17,01,26.60
2015,06,29,17,02,26.70
2015,06,29,17,03,26.70
2015,06,29,17,04,26.80
2015,06,29,17,05,26.80
2015,06,29,17,06,26.80
2015,06,29,17,07,26.80
2015,06,29,17,08,26.70
2015,06,29,17,09,26.70
2015,06,29,17,10,26.60
2015,06,29,17,11,26.60
2015,06,29,17,12,26.60
2015,06,29,17,13,26.50
2015,06,29,17,14,26.50
2015,06,29,17,15,26.40
2015,06,29,17,16,26.30
2015,06,29,17,17,26.30
2015,06,29,17,18,26.20
2015,06,29,17,19,26.20